TimeEDT,TemperatureF,Dew PointF,Humidity,Sea Level PressureIn,VisibilityMPH,Wind Direction,Wind SpeedMPH,Gust SpeedMPH,PrecipitationIn,Events,Conditions,WindDirDegrees,DateUTC
12:32 AM,66.2,64.4,94,29.90,5.0,Calm,Calm,-,N/A,,Mostly Cloudy,0,2013-08-23 04:32:00
12:50 AM,66.2,66.2,100,29.90,6.0,Calm,Calm,-,N/A,,Mostly Cloudy,0,2013-08-23 04:50:00
12:52 AM,66.9,66.0,97,29.90,6.0,Calm,Calm,-,N/A,,Mostly Cloudy,0,2013-08-23 04:52:00
1:11 AM,66.2,66.2,100,29.91,4.0,Calm,Calm,-,N/A,,Overcast,0,2013-08-23 05:11:00
1:52 AM,68.0,64.9,90,29.90,8.0,SW,4.6,-,N/A,,Overcast,230,2013-08-23 05:52:00
2:23 AM,68.0,64.4,88,29.92,8.0,WSW,3.5,-,N/A,,Overcast,240,2013-08-23 06:23:00
2:31 AM,68.0,66.2,94,29.91,8.0,WSW,3.5,-,N/A,,Overcast,240,2013-08-23 06:31:00
2:38 AM,68.0,66.2,94,29.92,8.0,WSW,4.6,-,N/A,,Overcast,250,2013-08-23 06:38:00
2:47 AM,68.0,64.4,88,29.92,9.0,Variable,4.6,-,N/A,,Mostly Cloudy,0,2013-08-23 06:47:00
2:52 AM,66.9,64.0,90,29.91,9.0,Calm,Calm,-,N/A,,Mostly Cloudy,0,2013-08-23 06:52:00
3:52 AM,66.9,62.1,84,29.91,10.0,WSW,3.5,-,N/A,,Mostly Cloudy,250,2013-08-23 07:52:00
4:39 AM,66.2,62.6,88,29.92,10.0,WNW,3.5,-,N/A,,Overcast,290,2013-08-23 08:39:00
4:49 AM,64.4,62.6,94,29.92,10.0,Calm,Calm,-,N/A,,Overcast,0,2013-08-23 08:49:00
4:52 AM,64.9,62.1,90,29.92,10.0,Variable,3.5,-,N/A,,Overcast,0,2013-08-23 08:52:00
5:23 AM,64.4,60.8,88,29.93,10.0,Calm,Calm,-,N/A,,Scattered Clouds,0,2013-08-23 09:23:00
5:52 AM,63.0,60.1,90,29.94,9.0,Calm,Calm,-,N/A,,Partly Cloudy,0,2013-08-23 09:52:00
7:52 AM,64.0,61.0,90,29.99,7.0,Calm,Calm,-,N/A,,Clear,0,2013-08-23 11:52:00
8:52 AM,66.9,60.1,79,30.00,10.0,West,4.6,-,0.01,,Clear,280,2013-08-23 12:52:00
9:52 AM,69.1,55.9,63,30.02,10.0,Variable,4.6,-,N/A,,Clear,0,2013-08-23 13:52:00
10:52 AM,72.0,54.0,53,30.03,10.0,Variable,4.6,-,N/A,,Clear,0,2013-08-23 14:52:00
11:52 AM,72.0,55.0,55,30.02,10.0,Variable,4.6,-,N/A,,Clear,0,2013-08-23 15:52:00
12:52 PM,73.9,53.1,48,30.02,10.0,Variable,5.8,-,N/A,,Scattered Clouds,0,2013-08-23 16:52:00
1:52 PM,72.0,51.1,48,30.03,10.0,Variable,6.9,-,N/A,,Scattered Clouds,0,2013-08-23 17:52:00
2:52 PM,73.0,51.1,46,30.03,10.0,NNW,8.1,-,N/A,,Clear,340,2013-08-23 18:52:00
3:52 PM,73.9,51.1,45,30.04,10.0,Variable,4.6,-,N/A,,Clear,0,2013-08-23 19:52:00
4:52 PM,73.0,48.9,42,30.05,10.0,NNW,9.2,-,N/A,,Clear,330,2013-08-23 20:52:00
5:52 PM,71.1,48.9,45,30.06,10.0,Calm,Calm,-,N/A,,Clear,0,2013-08-23 21:52:00
6:52 PM,69.1,48.9,49,30.07,10.0,Variable,4.6,-,N/A,,Clear,0,2013-08-23 22:52:00
7:52 PM,62.1,53.1,72,30.10,10.0,Calm,Calm,-,N/A,,Clear,0,2013-08-23 23:52:00
8:52 PM,57.0,53.1,87,30.12,10.0,Calm,Calm,-,N/A,,Clear,0,2013-08-24 00:52:00
9:52 PM,54.0,51.1,90,30.15,10.0,Calm,Calm,-,N/A,,Clear,0,2013-08-24 01:52:00
10:52 PM,52.0,48.9,89,30.17,10.0,Calm,Calm,-,N/A,,Clear,0,2013-08-24 02:52:00
11:52 PM,51.1,48.9,92,30.19,10.0,Calm,Calm,-,N/A,,Clear,0,2013-08-24 03:52:00